ISS DEB (44303 NORAD) Tracking and Keplerian Element Data

This shows tracking and keplerian element data for the satellite.

Feedback or suggestion? Click here.




ElementValue
Catalog44303
NameISS DEB
Epoch Orbit11071
Epoch Day130.65048792
Epoch Year2021
RAAN142.7602
Inclination51.6372
Eccentricity0.0005374
Argument of Perigee97.4393
Mean Anonmoly262.7211
Mean Motion15.58861509
Decay Rate5.117E-05
L11 44303U 98067QA 21130.65048792 .00005117 00000-0 71237-4 0 9990
L22 44303 51.6372 142.7602 0005374 97.4393 262.7211 15.58861509110715

Live tracking and technical data element details for ISS DEB (NORAD 44303). ISS DEB can be tracked NOW for your location showing map with azimuth and elevation plus other details from your city location.

Track the satellite on the map from your city or location and see movement details for azimuth, elevation, latitude, longitude, range, height, and movement on the map or in text.







IsCatalogInMostPopularTable: catalog: 44303, numindb: 25054
Update: records affected: 1



GetName: 44303 ISS DEB

Hit Count: updated at: Tue, 11 May 2021 19:00:25 GMT